Regional Weather Roundup
Issued by NWS Wakefield, VA

Home | Current Version | Previous Version | Graphics & Text | Print | Product List | Glossary On
Versions: 1 2 3 4 5 6 7 8 9 10 11 12 13 14 15 16 17 18 19 20 21 22 23 24 25 26 27 28 29 30 31 32 33 34 35 36 37 38 39 40 41 42 43 44 45 46 47 48 49 50
000
ASUS41 KAKQ 212310
RWRAKQ

REGIONAL WEATHER ROUNDUP
NATIONAL WEATHER SERVICE WAKEFIELD VA
700 PM EDT THU AUG 21 2014

Note: "fair" indicates few or no clouds below 12,000 feet with no
significant weather and/or obstructions to visibility. * = Denotes
station may not report precipitation (e.g., rain,snow,etc.),
thunder or fog.

VAZ042-051-052>054-056-220000-
NORTHERN VIRGINIA

CITY           SKY/WX    TMP DP  RH WIND       PRES   REMARKS
WASH NATIONAL  CLOUDY    80  70  71 SW3       30.00S
DULLES         CLOUDY    73  71  93 CALM      29.99F
FORT BELVOIR   CLOUDY    74  72  92 CALM      30.00S
QUANTICO       CLOUDY    83  74  74 E3        29.99F
FREDERICKSBRG* CLOUDY    82  74  77 CALM      29.98S
STAFFORD*      CLOUDY    80  80 100 CALM      30.03S
WARRENTON      CLOUDY    81  78  91 CALM      29.99F
CULPEPER*      CLOUDY   N/A N/A N/A SW3       29.99F
MANASSAS*      NOT AVBL
LEESBURG*      CLOUDY    73  73 100 CALM      30.01S
WINCHESTER     CLOUDY    81  64  57 W10       30.02R
$$

VAZ048-049-060>072-079>083-220000-
CENTRAL AND SOUTH CENTRAL VIRGINIA...AND NORTH CENTRAL NORTH CAROLINA

CITY           SKY/WX    TMP DP  RH WIND       PRES   REMARKS
RICHMOND       CLOUDY    87  67  51 SW7       30.00S
CHESTERFIELD*  CLOUDY   N/A N/A N/A CALM      30.01F
HANOVER        CLOUDY    84  71  65 W5        30.01F
TAPPAHANNOCK*  CLOUDY    82  71  69 CALM      30.00S
CHARLOTTSVILLE CLOUDY    80  72  76 S5        30.02R
ORANGE*        CLOUDY    81  73  78 CALM      30.02S
LOUISA*        CLOUDY    81  73  78 CALM      30.01R
FARMVILLE*     PTSUNNY   82  70  65 CALM      30.01S
SOUTH HILL*    CLOUDY    84  77  79 CALM      30.08R
ROANOKE RAPIDS CLOUDY    86  72  62 CALM      30.01S
RALEIGH        PTSUNNY   86  68  54 NW3       30.04R
$$

VAZ088>098-220000-
SOUTHEAST VIRGINIA

CITY           SKY/WX    TMP DP  RH WIND       PRES   REMARKS
NORFOLK        CLOUDY    83  70  64 E5        30.00S
VIRGINIA BEACH CLOUDY    79  72  79 SE7       30.00S
NORFOLK NAVAL  CLOUDY    83  70  64 E6        30.01S
WEST POINT*    CLOUDY    84  71  65 CALM      30.00F
NEWPORT NEWS   CLOUDY    86  74  67 E7        30.00R
LANGLEY AFB    CLOUDY    83  73  71 S5        29.99S
FORT EUSTIS    CLOUDY    83  72  67 S2        29.98S
WILLIAMSBURG*  CLOUDY    86  75  70 S3        30.00S HX  95
FRANKLIN*      CLOUDY    84  75  74 CALM      30.00R
WAKEFIELD      CLOUDY    84  77  79 CALM      30.00S
$$

VAZ020-022-025-037-045-220000-
WESTERN AND SOUTHWEST VIRGINIA

CITY           SKY/WX    TMP DP  RH WIND       PRES   REMARKS
STAUNTON*      CLOUDY    80  66  62 CALM      30.08R
HOT SPRINGS VA CLOUDY    64  60  90 W9        30.22S
LYNCHBURG      RAIN     N/A N/A N/A N12       30.08F
DANVILLE       PTSUNNY   82  72  71 CALM      30.05R
MARTINSVILLE   CLOUDY    80  79  95 CALM      30.09R
ROANOKE        CLOUDY    73  68  84 NW7       30.10R THUNDER
BLACKSBURG     RAIN      70  70 100 NW8       30.20R
DUBLIN*        RAIN      76  69  79 NW7       30.18R
MARION*        CLOUDY    76  70  82 W8        30.22R
HILLSVILLE*      N/A     76  66  70 W8        30.19R
RICHLANDS*     TSTM      69  66  90 CALM      30.23R
WISE*          TSTM      70  66  88 CALM      30.22F
ABINGDON*      CLOUDY    80  72  76 CALM      30.18S THUNDER
$$

MDZ021>025-VAZ099-100-220000-
SOUTHERN MARYLAND AND THE DELMARVA PENINSULA

CITY           SKY/WX    TMP DP  RH WIND       PRES   REMARKS
PATUXENT RIVER CLOUDY    80  73  79 S6        29.98F
BAY BRIDGE APT   N/A     81  72  74 S3        29.99R
LEONARDTOWN    CLOUDY    81  70  69 CALM      30.01S
DOVER          CLOUDY    76  72  87 SE7       29.99S
GEORGETOWN     CLOUDY    76  71  85 SE7       30.01F
EASTON         CLOUDY    81  75  83 SE7       30.03R
CAMBRIDGE      CLOUDY    81  72  74 CALM      29.99S
SALISBURY      CLOUDY    79  74  84 E5        30.01R
OCEAN CITY     CLOUDY    77  72  84 S3        30.02R
WALLOPS ISLAND CLOUDY    78  73  84 S8        30.01S
ACCOMACK*      CLOUDY    77  73  88 SE5       30.00S
$$

NCZ012>017-030>032-220000-
EASTERN NORTH CAROLINA

CITY           SKY/WX    TMP DP  RH WIND       PRES   REMARKS
ELIZABETH CITY CLOUDY    83  76  79 E3        30.00F
AHOSKIE*       CLOUDY    82  76  82 CALM      30.01S
EDENTON*       CLOUDY    85  76  74 CALM      29.99F HX  95
CURRITUCK*     CLOUDY    85  71  63 CALM      30.00F
KILL DEVIL HLS CLOUDY    83  74  74 CALM      29.99S
MANTEO         CLOUDY    82  72  69 S6        30.00F
CAPE HATTERAS  PTCLDY    81  74  79 SW3       30.01F
GOLDSBORO      MOCLDY    89  74  61 W6        29.99F HX  97
WASHINGTON     MOCLDY    86  74  68 CALM      30.00F
GREENVILLE     MOCLDY    88  77  70 CALM      30.01F HX 100
NEW BERN       PTCLDY    87  76  69 S3        30.01S HX  97
WILMINGTON     PTCLDY    86  71  60 W6        30.02R
$$

VAZ048-220000-
ELSEWHERE

CITY           SKY/WX    TMP DP  RH WIND       PRES   REMARKS
HARRISBURG PA  CLOUDY    73  70  90 W5        29.98F
BALTIMORE      CLOUDY    81  69  67 SW9       29.98S
ANNAPOLIS      CLOUDY    81  71  71 S5        29.98S
ANDREWS AFB    CLOUDY    78  74  88 W7        30.00S
WILMINGTON DE  CLOUDY    77  71  82 S16       30.00S
PHILADELPHIA   CLOUDY    80  69  69 S9        30.00R
WILDWOOD NJ*   CLOUDY    75  64  69 SE8       30.02S
ATLANTIC CITY  CLOUDY    74  63  68 S7        30.03R
HENDERSON NC   MOSUNNY   82  68  63 NW3       30.04R
GREENSBORO     PTSUNNY   85  69  58 SW6       30.07R
ROCKY MOUNT    MOCLDY    88  71  57 W3        30.01S
FAYETTEVILLE   MOSUNNY   92  66  42 N6        30.02R
CHARLOTTE      MOSUNNY   88  64  44 SW5       30.08R
$$

VAZ100-220000-
MARINE

STATION/POSITION TIME  TEMP    WIND        PRES    WAVE   SWELL
                       AIR SEA DIR/SP/G            HT/PER HT/PER
                 (UTC) (F)     (DEG/KT/KT) (MB)    (FT/S) (FT/S)
44066 TX TWR #4  2300   72 74   80/  8/ 10 1016.8F   3/ 7   3/ 7
CAPE MAY NJ      2300   74 82  140/  8/ 10 1015.7F
LEWES DE         2300   75 76  160/  7/ 11 1015.9R
15NM E FENWICK I 2300   75 76              1016.1S   2/ 6
OCEAN-CITY-INLET 2300   77 77  170/  6/  7 1015.8S
WACHAPREAGUE VA  2300   78 83  160/  5/  7 1015.9S
THOMAS POINT MD  2300   80 80  200/  8/  9 1015.9S
GOOSES REEF MD   2300   80     190/  8/  8 1015.9R
COVE POINT MD    2300   80     200/  8/  9 1015.3S
SOLOMONS ISLAND  2300      80                N/A
BISHOPS HEAD MD  2300   81 84  160/ 11/ 12 1015.2S
PINEY POINT MD   2300          190/  4/  5   N/A
POTOMAC MD       2200   81     180/  6/  8 1015.1R
CAMBRIDGE MD     2300   83 78  210/  3/  4 1015.1S
LEWISETTA VA     2300   80 83  170/  5/  7 1015.0F
RAPPAHANNOCK LGT 2300          130/  8/  8 1016.2F
STINGRAY PT      2300   81     170/  6/  6 1016.4R
YORK RVR RNG VA  2300   81     170/  7/  8 1015.3S
YORKTOWN VA      2300   83 81  140/  4/  5 1015.5S
JAMESTOWN VA     2300   84     180/  2/  4   N/A
DOMINION TERM VA 2300   85      CALM  /  2 1015.8F
KIPTOPEKE VA     2300      83  180/  4/  4   N/A
CHES BAY BRIDGE  2300   81 78   90/  5/  6 1015.4R
CAPE HENRY VA    2300   79     140/  6/  7 1014.7S
CHESAPEAKE LGHT  2200   79     150/  4/  4 1016.8S
WILLOUBY STN VA  2300   81     100/  5/  6 1014.7S
S CRANEY ISL VA  2300           70/  3/  4 1015.5S
CAPE HENRY BUOY  2300      80                N/A     2/ 7
1ST LANDING BUOY 2300   80     130/  8/ 10 1015.4S
CAPE CHARLES BUO 2300      79                N/A     2/ 6   2/ 6
OFFSHORE WE BUOY 2300      80                N/A     2/ 7   2/ 7
64NM E OF VA BCH 2300   79 78  140/  8/  8 1015.5F   2/ 7   2/ 7
DUCK PIER NC     2300   83 78  130/  3/  4 1015.2R
44056 DUCK FRF   2300                        N/A     2/ 8
OREGON INLET NC  2300   82 84  180/  7/  8 1016.1S
HATTERAS NC      2300   83 84  210/  3/  7 1016.6F
DIAMOND SHLS NC  2300   81     210/  6/  8 1016.2F   2/ 8   2/ 8
CAPE LOOKOUT NC  2200   84     210/  6/  9 1016.3F
$$



USA.gov is the U.S. government's official web portal to all federal, state and local government web resources and services.